FW8288 Weather Reports


time (UTC)temp
C
wind
direction
speed
KPH
gust
KPH
rain 1hr
cm
rain 24hr
cm
rain mn
cm
humidity
%
barometer
mb
20260506213103 31 166 1.6 8.0 0.00 0.00 0.00 68 1009.1
20260506211559 31 166 3.2 8.0 0.00 0.00 0.00 70 1009.1
20260506210100 31 166 6.4 11.3 0.00 0.00 0.00 68 1009.3
20260506204602 31 166 1.6 6.4 0.00 0.00 0.00 71 1009.3
20260506203122 31 166 1.6 9.7 0.00 0.00 0.00 70 1009.6
20260506201600 30 166 3.2 8.0 0.00 0.00 0.00 72 1009.6
20260506194601 30 165 4.8 9.7 0.00 0.00 0.00 71 1009.8
20260506193106 30 165 1.6 9.7 0.00 0.00 0.00 72 1009.8
20260506191559 30 165 1.6 4.8 0.00 0.00 0.00 73 1010.1
20260506190058 30 165 1.6 9.7 0.00 0.00 0.00 74 1010.3
20260506184600 30 165 1.6 8.0 0.00 0.00 0.00 75 1010.4
20260506183108 29 165 1.6 6.4 0.00 0.00 0.00 77 1010.6
20260506181604 28 165 0.0 4.8 0.00 0.00 0.00 77 1010.8
20260506174604 28 165 0.0 8.0 0.00 0.00 0.00 80 1011.4
20260506173109 28 165 0.0 3.2 0.00 0.00 0.00 80 1011.8
20260506171601 27 165 0.0 4.8 0.00 0.00 0.00 82 1011.7
20260506170109 27 0 1.6 9.7 0.00 0.00 0.00 84 1011.9
20260506164626 26 165 1.6 4.8 0.00 0.00 0.00 87 1011.7
20260506163111 26 0 0.0 0.0 0.00 0.00 0.00 87 1011.9
20260506161601 26 165 1.6 6.4 0.00 0.00 0.00 86 1011.6
20260506160122 26 0 0.0 4.8 0.00 0.00 0.00 86 1011.4
20260506154600 26 165 0.0 3.2 0.00 0.00 0.00 85 1011.4
20260506153058 26 165 0.0 3.2 0.00 0.00 0.00 84 1011.4
20260506151604 26 165 0.0 3.2 0.00 0.00 0.00 85 1011.0
20260506150109 26 0 0.0 4.8 0.00 0.00 0.00 85 1010.8
20260506144605 26 0 0.0 6.4 0.00 0.00 0.00 85 1010.6
20260506143100 26 165 0.0 6.4 0.00 0.00 0.00 88 1010.3
20260506141600 25 165 0.0 4.8 0.00 0.00 0.00 89 1010.4
20260506140059 25 165 1.6 8.0 0.00 0.00 0.00 90 1010.5
20260506134614 25 165 0.0 4.8 0.00 0.00 0.00 92 1010.6
20260506133114 24 0 0.0 1.6 0.00 0.00 0.00 93 1010.5
20260506131615 24 0 0.0 0.0 0.00 0.00 0.00 93 1010.7
20260506124608 23 0 0.0 0.0 0.00 0.00 0.00 94 1010.7
20260506123059 23 0 0.0 0.0 0.00 0.00 0.00 94 1010.6
20260506121601 23 0 0.0 0.0 0.00 0.00 0.00 93 1010.4
20260506120111 23 0 0.0 0.0 0.00 0.00 0.00 93 1010.4
20260506114558 23 0 0.0 0.0 0.00 0.00 0.00 93 1010.2
20260506113057 23 0 0.0 0.0 0.00 0.00 0.00 93 1009.9
20260506111600 23 0 0.0 6.4 0.00 0.00 0.00 93 1009.7
20260506110113 23 0 0.0 3.2 0.00 0.00 0.00 93 1009.6
20260506104613 23 165 0.0 1.6 0.00 0.00 0.00 93 1009.4
20260506103101 23 165 0.0 3.2 0.00 0.00 0.00 92 1009.6
20260506101558 23 165 0.0 3.2 0.00 0.00 0.00 92 1009.5
20260506100113 23 0 0.0 3.2 0.00 0.00 0.00 92 1009.4
20260506094603 23 165 0.0 3.2 0.00 0.00 0.00 91 1009.3
20260506093101 23 0 0.0 3.2 0.00 0.00 0.00 91 1009.2
20260506091607 24 165 0.0 3.2 0.00 0.00 0.00 90 1009.3
20260506090104 24 0 0.0 3.2 0.00 0.00 0.00 90 1009.5
20260506084631 24 0 0.0 1.6 0.00 0.00 0.00 90 1009.5
20260506083058 24 0 0.0 4.8 0.00 0.00 0.00 90 1009.6
20260506081600 24 165 0.0 4.8 0.00 0.00 0.00 89 1009.7
20260506073058 24 0 1.6 8.0 0.00 0.00 0.00 89 1010.0
20260506071600 25 165 1.6 6.4 0.00 0.00 0.00 89 1010.1
20260506061559 25 165 0.0 6.4 0.00 0.00 0.00 88 1010.4
20260506044559 25 165 0.0 1.6 0.00 0.00 0.00 87 1010.4
20260506043103 25 0 0.0 6.4 0.00 0.00 0.00 87 1010.4
20260506041609 25 165 1.6 4.8 0.00 0.00 0.00 87 1010.2
20260506040101 25 0 0.0 3.2 0.00 0.00 0.00 86 1010.3
20260506034600 25 165 0.0 8.0 0.00 0.00 0.00 85 1010.0
20260506033101 25 165 1.6 11.3 0.00 0.00 0.00 85 1009.9
20260506031557 25 166 1.6 6.4 0.00 0.00 0.00 84 1009.7
20260506030059 25 166 1.6 8.0 0.00 0.00 0.00 85 1009.7
20260506024605 25 166 3.2 9.7 0.00 0.00 0.00 84 1009.5
20260506023108 25 166 1.6 8.0 0.00 0.00 0.00 84 1009.4
20260506021622 25 166 1.6 9.7 0.00 0.00 0.00 83 1009.0
20260506020100 26 167 1.6 14.5 0.00 0.00 0.00 82 1008.9
20260506014557 26 167 0.0 9.7 0.00 0.00 0.00 82 1008.6
20260506013109 26 166 1.6 9.7 0.00 0.00 0.00 81 1008.4
20260506011615 26 167 0.0 12.9 0.00 0.00 0.00 80 1008.1
20260506010100 26 166 3.2 9.7 0.00 0.00 0.00 79 1008.1
20260506004601 26 167 1.6 11.3 0.00 0.00 0.00 78 1008.0
20260506003101 26 167 1.6 12.9 0.00 0.00 0.00 76 1007.8
20260506001603 27 167 3.2 9.7 0.00 0.00 0.00 75 1007.7
20260505234604 27 0 1.6 14.5 0.00 0.00 0.00 75 1007.7
20260505233106 27 166 4.8 12.9 0.00 0.00 0.00 75 1007.7
20260505231613 27 167 3.2 11.3 0.00 0.00 0.00 75 1007.6
20260505230100 27 167 4.8 14.5 0.00 0.00 0.00 75 1007.7
20260505224604 27 168 3.2 11.3 0.00 0.00 0.00 75 1007.7
20260505223059 27 167 4.8 12.9 0.00 0.00 0.00 75 1007.8
20260505221604 28 166 4.8 12.9 0.00 0.00 0.00 75 1007.9
20260505214601 28 166 3.2 14.5 0.00 0.00 0.00 73 1008.1